Wetbulb
74.59 78.00 78.06 73.19 64.65 63.55 58.39 58.76 62.81 61.54 62.39 67.31 68.08 65.59 64.60 66.44 64.03 61.96 73.97 73.61 73.78 74.89 76.07 77.08 77.97 77.36 77.20 77.28 77.19 77.16 77.07 76.91 76.56 76.37 76.64 76.70 76.64 76.50 76.34 76.42 76.34 75.65 74.96 75.12 75.15 75.60 75.85 76.32 75.77
76.50 76.35 75.12 70.58 61.85 56.71 57.79 61.83 60.70 63.29 66.22 68.52 67.94 66.81 65.75 65.51 70.36 71.07 71.96 73.56 74.09 75.00 76.31 76.28 77.20 77.52 76.90 76.95 76.88 76.92 76.92 77.18 77.12 76.91 76.56 76.32 76.26 76.32 76.35 76.18 75.55 75.07 74.76 75.10 75.71 75.60 76.13 76.24 76.18
75.92 74.85 70.29 65.34 61.11 57.08 57.69 61.96 63.39 65.74 66.98 66.23 65.95 68.65 67.46 67.09 70.13 71.98 74.24 74.09 74.45 75.22 75.87 75.56 74.81 74.20 74.88 75.70 76.59 76.57 76.84 77.07 76.82 77.03 76.76 76.81 76.51 76.32 76.04 75.82 75.38 75.32 75.60 75.88 76.27 75.82 75.96 75.65 75.99
74.41 72.21 70.24 63.12 58.76 61.17 61.57 63.51 65.14 65.17 66.63 67.82 67.13 65.35 70.01 72.36 71.41 73.62 74.48 73.72 74.02 75.06 74.87 74.22 74.48 74.03 75.03 75.01 75.48 76.04 76.69 77.21 76.85 76.90 76.73 76.94 76.89 76.83 76.57 76.07 75.91 76.10 76.38 76.39 76.49 76.52 75.32 75.06 74.98
73.39 70.16 64.37 60.99 60.01 62.15 64.64 65.37 66.09 64.68 65.24 66.11 67.00 64.96 67.28 71.88 74.00 74.64 73.84 73.86 73.94 74.61 75.19 73.68 75.54 75.14 75.54 75.68 76.10 75.78 76.68 77.08 76.77 76.68 76.71 76.62 76.68 76.43 76.29 76.20 76.42 76.71 76.31 76.28 76.46 76.24 75.60 75.24 74.81
68.60 68.28 61.11 58.96 59.41 62.24 64.81 66.05 66.36 65.52 66.04 66.81 65.90 66.11 68.47 73.37 73.29 73.78 73.94 73.90 74.64 74.35 74.62 73.94 75.37 75.04 75.68 75.76 76.28 76.17 75.79 75.92 76.60 76.95 76.77 76.76 76.62 76.47 76.68 76.52 76.58 76.45 76.38 76.52 76.07 75.10 75.05 74.74 74.68
64.85 66.30 60.46 60.01 59.57 61.01 63.59 66.75 65.44 65.25 65.20 65.61 68.26 65.11 69.52 71.80 73.95 74.13 73.97 74.36 74.94 75.16 74.58 75.13 74.44 75.45 75.80 75.97 77.03 76.50 75.82 75.54 76.42 76.46 77.00 76.69 76.70 76.04 76.39 76.29 76.94 76.74 76.52 75.91 75.05 75.13 75.10 75.07 74.99
67.22 67.49 60.80 61.24 60.00 59.81 64.72 65.57 66.54 65.75 65.51 70.21 69.81 65.02 66.84 72.11 74.22 74.09 73.93 74.74 75.22 75.56 75.79 74.16 74.89 76.49 75.64 77.03 77.28 75.62 75.35 75.78 76.48 76.62 76.74 76.71 76.57 76.48 76.65 75.99 76.68 76.77 75.93 75.34 74.98 74.98 75.40 75.32 74.69
68.09 63.74 59.86 59.89 60.17 61.76 65.70 64.38 67.61 69.28 67.77 68.48 69.55 69.32 71.70 73.67 74.27 72.97 72.56 73.74 74.37 75.39 76.49 75.63 75.71 76.56 77.44 77.37 76.77 76.18 76.06 76.31 76.35 76.77 76.80 76.85 76.75 77.02 76.81 76.68 76.38 75.63 75.54 75.46 75.40 75.71 76.05 76.65 75.97
63.37 61.30 58.61 62.35 64.43 63.82 65.02 64.87 66.44 66.75 66.63 67.38 68.54 70.83 72.83 73.00 73.03 71.98 71.43 71.76 72.96 73.43 74.92 75.79 75.65 76.49 76.85 75.34 77.38 78.24 77.05 76.82 76.95 77.11 77.60 77.19 76.85 76.97 77.28 76.44 75.47 75.99 75.99 76.07 76.07 76.35 76.52 76.52 77.10
61.61 57.97 60.15 61.77 64.11 65.73 65.38 65.56 67.35 66.37 64.71 66.91 67.56 69.71 71.41 71.81 71.89 71.66 71.98 72.49 72.56 73.89 74.47 75.57 76.49 77.14 76.86 75.36 76.04 76.82 76.63 77.00 77.14 77.76 77.54 76.92 76.46 75.64 75.48 75.66 75.17 76.53 76.40 76.07 76.52 76.77 76.87 76.79 77.55
58.26 58.60 58.61 61.62 65.59 65.58 65.50 67.21 66.21 66.93 67.06 68.91 70.07 71.42 71.67 71.20 71.31 71.61 71.40 71.31 72.13 73.41 74.35 75.41 75.67 76.64 76.66 76.08 75.45 75.97 76.05 75.92 76.12 76.70 77.60 76.29 74.77 74.22 75.63 74.59 75.59 75.08 74.91 75.55 76.00 76.07 77.67 77.46 77.96
57.80 58.14 58.99 60.27 66.20 66.57 67.09 66.38 66.45 66.63 68.98 70.18 71.21 71.32 70.95 71.24 71.35 72.23 72.74 72.69 73.19 72.85 74.00 74.70 75.58 76.43 76.40 76.45 75.77 75.48 76.09 75.55 75.94 76.17 76.25 74.21 73.32 73.89 74.26 74.40 74.90 75.84 77.08 76.96 77.24 78.00 78.22 78.35 77.53
58.44 58.23 59.07 61.44 65.69 66.48 65.61 65.69 66.76 67.28 69.75 69.83 70.12 70.37 70.96 70.93 71.21 71.97 71.79 72.26 72.78 73.49 73.70 74.27 75.12 76.11 76.01 75.89 76.10 75.57 76.25 75.62 75.94 75.02 74.74 76.31 74.44 74.81 74.28 75.36 75.92 76.83 77.62 78.59 78.58 77.98 77.66 78.45 77.89
58.39 56.52 59.37 61.84 63.21 62.59 63.30 62.33 63.58 67.82 69.53 69.27 69.63 70.14 70.68 71.11 71.36 71.35 72.16 72.18 72.94 73.59 74.00 73.40 75.05 75.42 75.89 75.70 76.05 75.83 75.34 75.18 75.15 74.93 76.36 76.43 76.54 77.60 78.11 77.09 76.76 77.64 79.12 78.39 78.30 78.30 78.51 76.90 77.69
56.94 57.70 55.73 58.91 59.25 61.68 60.12 56.39 62.60 66.61 68.35 68.36 69.21 69.84 70.20 70.89 71.05 71.94 72.61 73.40 74.27 74.02 73.28 74.10 74.40 74.78 75.54 75.66 75.70 75.35 75.33 74.88 76.23 76.42 76.22 76.68 77.57 78.60 78.37 76.72 76.61 78.58 79.47 79.05 78.53 77.09 76.42 76.44 75.98
56.77 53.52 54.27 55.61 60.06 58.25 56.44 55.87 62.06 67.15 67.47 67.74 69.13 69.89 70.07 70.68 71.35 72.37 73.01 73.50 73.99 74.74 74.39 74.45 74.61 74.53 74.83 75.86 75.47 75.43 75.94 75.23 75.12 76.05 76.28 77.55 77.63 78.11 77.67 77.02 77.19 78.44 78.35 77.91 76.48 77.93 76.44 75.33 74.59
52.78 52.29 53.93 54.25 56.55 56.72 55.36 56.06 58.64 63.11 66.58 66.98 68.46 69.61 70.18 70.50 71.09 72.64 73.11 73.91 74.71 75.01 75.20 75.41 74.71 75.35 75.72 76.36 75.53 75.15 74.80 75.06 75.19 75.04 76.01 76.90 77.29 78.05 77.51 77.02 77.92 77.68 77.20 77.21 76.40 76.62 76.36 75.81 75.35
54.57 53.54 52.28 55.66 57.15 54.82 55.01 55.35 58.01 61.42 65.73 66.23 67.92 68.95 69.96 70.57 72.34 72.84 73.05 73.50 73.89 74.63 74.88 75.13 74.99 75.57 75.10 74.37 73.74 73.81 73.17 73.88 74.88 74.73 76.03 76.45 76.58 77.54 77.77 76.16 77.05 77.68 76.76 77.77 77.20 76.72 76.22 74.79 75.80
54.32 52.23 52.71 54.98 54.99 54.57 54.86 55.04 58.46 59.65 63.05 65.64 67.73 68.53 69.31 70.66 71.71 72.20 72.67 73.07 73.14 73.73 74.76 75.08 75.20 75.49 75.11 74.63 74.75 74.76 74.32 74.17 74.89 74.95 75.28 76.08 75.76 76.68 77.25 77.16 76.06 77.58 76.08 77.64 77.62 77.25 74.70 75.95 76.22
52.86 51.64 52.29 52.16 54.00 55.78 54.88 54.36 56.22 58.61 61.95 64.33 66.52 69.04 70.02 70.01 70.89 71.96 72.28 72.60 73.18 73.55 74.23 74.93 75.51 75.70 75.63 75.79 75.43 75.21 75.28 77.10 76.20 74.59 74.17 74.80 75.61 75.74 77.28 77.47 77.13 77.06 77.18 75.28 76.68 76.56 75.73 72.14 75.60
49.81 52.37 51.35 51.22 51.57 49.68 54.40 48.20 55.01 56.37 56.82 59.67 63.60 66.74 68.42 70.07 71.25 72.44 72.49 72.55 72.81 73.54 74.78 75.35 75.84 76.09 76.01 75.89 75.06 75.00 72.94 72.81 73.97 74.28 74.50 73.93 75.03 75.29 75.75 77.35 77.55 77.49 76.18 77.44 76.62 76.42 76.81 75.63 72.95
50.52 52.52 51.97 51.91 51.70 51.86 51.96 49.83 53.23 56.16 55.63 57.26 59.13 61.59 66.98 69.43 70.65 71.29 72.71 73.19 73.51 74.20 74.37 75.07 76.22 76.29 76.30 75.93 76.40 74.44 73.83 73.74 77.30 76.01 76.79 76.24 75.41 75.19 74.90 76.97 77.45 76.97 76.75 77.19 77.56 77.48 77.04 76.21 74.27
53.21 52.40 52.95 52.75 52.25 47.45 51.03 49.53 51.74 54.65 55.52 57.12 58.79 60.47 63.89 68.02 69.97 71.76 73.14 73.90 73.66 74.47 74.57 74.95 75.68 76.10 76.57 76.35 76.01 75.25 74.47 74.38 75.61 74.77 73.46 74.17 74.51 74.58 74.97 75.66 77.39 77.22 76.80 76.94 76.18 77.62 77.05 75.91 76.17
52.83 50.91 46.62 46.51 46.93 47.12 51.45 49.46 51.82 55.78 56.74 57.86 58.89 61.01 63.71 66.98 69.29 70.87 72.21 72.76 73.32 73.73 74.26 74.46 75.10 75.13 76.21 76.07 75.91 75.38 75.21 75.37 74.91 73.88 73.18 73.65 72.71 73.29 73.92 75.76 76.58 76.41 77.78 77.19 77.37 77.75 76.85 76.45 75.61
52.25 51.33 47.54 42.68 46.41 50.09 52.05 48.47 52.96 56.82 58.31 61.07 61.80 61.99 63.74 66.88 68.87 70.56 72.17 73.07 73.40 73.60 74.23 74.41 74.72 75.31 75.82 75.81 75.93 76.10 75.93 75.08 74.80 73.39 73.07 77.30 73.98 73.86 75.33 75.95 76.30 76.60 77.32 77.12 77.43 76.44 76.65 75.95 75.92
52.11 49.51 53.18 49.10 50.51 47.55 50.61 52.77 56.46 57.38 58.35 60.99 61.89 60.55 63.54 66.58 68.43 69.94 72.10 72.94 73.65 73.86 74.23 74.57 74.71 75.42 75.77 75.69 75.92 75.96 75.80 75.70 74.84 74.60 74.20 74.63 76.01 75.11 75.66 76.40 76.48 76.68 76.89 77.02 77.18 75.77 75.65 76.31 76.82
53.39 54.34 48.71 49.59 44.99 44.88 50.35 50.54 51.81 54.76 57.33 59.52 61.24 62.31 65.08 67.32 68.51 70.19 71.58 72.77 73.58 74.34 74.79 75.18 75.37 75.38 75.86 75.87 76.01 75.79 75.59 75.93 75.80 74.87 74.20 74.25 75.13 75.81 76.17 76.60 76.63 76.67 76.89 77.09 77.27 75.86 76.87 76.97 79.63
52.51 51.20 52.06 52.44 51.54 47.88 47.18 51.75 56.40 56.12 58.01 59.87 60.55 61.99 65.24 67.23 68.50 70.34 71.86 73.07 73.75 74.46 74.57 75.00 75.11 75.43 75.60 75.77 75.92 75.98 75.89 75.67 75.70 75.33 75.32 74.66 74.58 75.65 75.93 76.60 76.37 76.31 76.28 76.43 76.23 76.52 76.37 76.44 77.67
56.26 54.75 54.84 50.51 50.60 52.01 50.87 50.94 57.99 58.23 59.26 60.92 61.76 62.84 64.34 67.94 69.47 70.58 71.81 73.03 73.35 73.79 74.17 74.62 75.01 75.15 75.75 75.99 76.53 75.85 76.32 76.14 75.44 75.06 75.41 75.82 75.53 75.27 75.70 76.07 76.09 76.09 76.23 76.61 76.00 75.60 75.92 76.01 76.22
MSLP
1010.71 1010.00 1009.74 1009.14 1007.96 1006.11 1006.07 1006.52 1006.42 1006.42 1006.56 1007.24 1007.54 1007.82 1008.10 1008.69 1009.11 1010.84 1011.65 1012.43 1013.40 1014.15 1014.92 1015.77 1016.14 1016.46 1016.75 1016.97 1017.19 1017.36 1017.60 1017.68 1017.75 1017.94 1018.13 1018.29 1018.44 1018.56 1018.69 1018.82 1018.90 1018.94 1019.08 1019.15 1019.27 1019.30 1019.22 1019.16 1019.21
1009.94 1010.23 1009.49 1008.02 1006.64 1005.42 1006.29 1006.53 1006.43 1006.81 1007.38 1007.74 1008.02 1008.24 1008.56 1009.32 1010.57 1011.46 1011.99 1012.72 1013.56 1013.68 1014.51 1015.55 1016.30 1016.43 1016.66 1017.05 1017.37 1017.69 1017.86 1017.81 1017.96 1018.12 1018.26 1018.45 1018.55 1018.69 1018.79 1019.00 1019.05 1019.13 1019.21 1019.27 1019.32 1019.36 1019.38 1019.41 1019.43
1010.17 1009.91 1008.11 1007.29 1006.49 1005.72 1006.12 1006.71 1006.96 1007.44 1007.81 1007.83 1008.03 1008.49 1008.97 1010.12 1011.47 1011.48 1011.91 1012.85 1012.89 1013.74 1014.61 1015.80 1016.31 1016.46 1016.79 1017.22 1017.62 1017.93 1017.92 1018.06 1018.19 1018.33 1018.42 1018.47 1018.67 1018.86 1018.94 1019.09 1019.11 1019.22 1019.30 1019.39 1019.41 1019.41 1019.49 1019.57 1019.62
1009.22 1008.74 1008.11 1006.73 1006.43 1006.93 1006.54 1006.81 1007.09 1007.49 1007.85 1008.12 1008.18 1008.70 1010.27 1011.28 1011.51 1011.71 1012.52 1012.89 1013.05 1014.19 1015.21 1016.26 1016.38 1016.76 1017.13 1017.56 1017.88 1018.10 1018.15 1018.17 1018.40 1018.49 1018.59 1018.64 1018.78 1018.88 1019.04 1019.24 1019.35 1019.35 1019.46 1019.52 1019.57 1019.61 1019.70 1019.68 1019.72
1008.82 1007.96 1006.87 1006.74 1006.88 1006.90 1006.88 1006.98 1007.08 1007.28 1007.59 1007.95 1008.31 1008.81 1010.22 1011.54 1011.72 1012.16 1012.66 1012.95 1013.33 1014.51 1014.82 1016.14 1016.34 1016.90 1017.29 1017.68 1018.00 1018.24 1018.24 1018.36 1018.62 1018.68 1018.74 1018.79 1018.89 1018.96 1019.10 1019.24 1019.36 1019.49 1019.66 1019.69 1019.74 1019.84 1019.87 1019.84 1019.86
1007.35 1007.42 1006.35 1006.41 1006.87 1006.94 1006.82 1006.79 1006.90 1007.10 1007.50 1008.11 1008.29 1008.86 1010.65 1011.77 1012.03 1012.37 1012.79 1013.03 1013.58 1013.95 1015.36 1016.25 1016.55 1017.01 1017.28 1017.81 1018.14 1018.33 1018.42 1018.57 1018.69 1018.78 1018.90 1018.97 1019.05 1019.15 1019.28 1019.45 1019.56 1019.74 1019.79 1019.95 1019.99 1020.06 1020.04 1019.94 1019.92
1007.03 1006.67 1006.73 1006.87 1006.96 1006.84 1006.70 1006.70 1006.52 1006.65 1007.15 1007.45 1008.15 1008.37 1010.75 1011.51 1012.04 1012.53 1012.98 1013.26 1013.81 1014.25 1015.74 1016.54 1016.71 1017.00 1017.39 1017.85 1018.13 1018.34 1018.51 1018.72 1018.94 1019.07 1019.01 1019.16 1019.27 1019.44 1019.47 1019.51 1019.62 1019.71 1019.96 1020.05 1020.16 1020.11 1020.10 1020.01 1019.93
1007.14 1006.93 1006.77 1006.85 1006.51 1006.42 1006.67 1006.68 1006.74 1006.77 1006.93 1007.91 1008.19 1008.02 1009.83 1011.17 1012.06 1012.61 1013.02 1013.48 1014.37 1014.54 1015.96 1016.58 1016.91 1016.75 1017.40 1017.39 1018.07 1018.34 1018.53 1018.79 1019.03 1019.17 1019.27 1019.39 1019.37 1019.60 1019.57 1019.64 1019.68 1019.85 1020.06 1020.20 1020.10 1020.08 1019.94 1019.91 1019.93
1007.69 1006.28 1006.23 1006.45 1006.45 1006.48 1006.64 1006.61 1006.88 1007.10 1007.12 1007.82 1008.37 1008.55 1009.15 1011.15 1011.96 1012.59 1012.98 1013.88 1014.93 1015.45 1016.00 1016.03 1016.40 1017.01 1017.46 1017.14 1017.92 1018.45 1018.77 1018.98 1019.09 1019.16 1019.39 1019.33 1018.38 1019.03 1019.30 1019.78 1019.78 1019.99 1020.07 1020.09 1020.02 1019.94 1019.85 1019.77 1019.67
1006.84 1006.35 1006.61 1006.70 1006.54 1006.43 1006.58 1006.60 1006.60 1006.96 1007.06 1007.63 1008.65 1009.53 1010.18 1011.27 1011.80 1012.32 1012.94 1014.04 1014.83 1015.18 1015.87 1015.92 1015.86 1016.70 1017.40 1017.19 1017.73 1018.31 1018.00 1018.12 1018.26 1018.55 1018.88 1018.95 1018.50 1018.53 1018.53 1019.47 1020.04 1020.02 1019.94 1019.93 1019.86 1019.80 1019.74 1019.63 1018.45
1007.03 1006.70 1006.70 1006.36 1006.32 1006.32 1006.31 1006.46 1006.51 1006.44 1006.30 1006.82 1007.47 1009.30 1010.42 1011.18 1011.78 1012.12 1012.65 1013.06 1013.87 1014.50 1015.61 1016.16 1015.79 1016.54 1016.92 1017.09 1017.29 1017.49 1017.51 1017.79 1018.16 1018.64 1019.02 1018.78 1018.61 1018.98 1018.77 1018.86 1019.13 1019.03 1019.64 1018.77 1019.12 1018.93 1018.52 1018.50 1018.50
1006.81 1006.76 1006.64 1006.42 1006.26 1006.18 1006.06 1006.28 1006.19 1006.33 1006.39 1006.93 1007.50 1008.95 1010.13 1010.77 1011.25 1011.78 1012.40 1012.91 1013.42 1014.24 1015.11 1015.47 1015.90 1016.34 1016.50 1017.14 1017.24 1017.17 1017.16 1017.39 1017.49 1017.98 1018.66 1018.93 1018.78 1018.78 1018.72 1018.52 1018.73 1019.13 1018.59 1018.66 1018.80 1018.71 1018.60 1018.58 1018.57
1006.63 1006.58 1006.40 1006.05 1005.72 1005.82 1005.86 1005.89 1006.01 1006.04 1006.35 1007.19 1007.85 1008.97 1009.74 1010.36 1010.98 1011.47 1012.13 1012.86 1013.32 1014.01 1014.68 1015.20 1015.74 1016.44 1016.91 1017.24 1017.37 1017.38 1017.27 1017.29 1017.36 1018.04 1018.52 1018.58 1018.31 1018.48 1018.59 1018.61 1018.61 1018.51 1018.38 1018.31 1018.58 1018.25 1018.15 1018.22 1018.34
1006.80 1006.52 1006.08 1005.79 1005.52 1005.59 1005.57 1005.27 1005.63 1005.49 1006.21 1007.11 1007.91 1008.59 1009.32 1009.93 1010.62 1011.31 1011.97 1012.45 1013.17 1013.84 1014.56 1015.17 1015.77 1016.46 1016.99 1017.26 1017.53 1017.64 1017.59 1017.30 1017.60 1017.83 1018.27 1018.76 1018.27 1018.55 1018.21 1018.38 1018.27 1018.21 1018.11 1017.97 1018.05 1017.92 1017.96 1017.82 1017.51
1006.78 1006.14 1005.47 1005.80 1005.63 1005.36 1005.48 1004.61 1004.95 1005.40 1006.15 1006.84 1007.52 1008.26 1008.96 1009.64 1010.35 1011.05 1011.61 1012.28 1013.01 1013.60 1014.37 1015.00 1015.66 1016.19 1016.85 1017.32 1017.64 1017.75 1017.72 1017.38 1017.45 1017.85 1018.54 1018.77 1018.69 1018.79 1018.58 1018.19 1018.18 1018.02 1018.13 1018.36 1017.95 1017.81 1017.48 1017.02 1016.81
1006.17 1005.68 1005.03 1005.81 1005.71 1005.76 1005.35 1004.13 1004.38 1005.26 1005.88 1006.29 1007.06 1007.89 1008.70 1009.31 1010.01 1010.76 1011.44 1011.94 1012.61 1013.21 1014.15 1014.93 1015.38 1015.82 1016.54 1016.81 1017.46 1017.44 1017.52 1017.29 1017.47 1018.21 1018.02 1018.59 1018.66 1018.68 1018.66 1017.94 1017.77 1017.97 1017.94 1017.78 1017.63 1017.52 1017.21 1016.99 1016.73
1005.57 1004.98 1005.06 1005.32 1005.93 1005.70 1005.26 1004.34 1004.48 1005.23 1005.49 1005.59 1006.37 1007.17 1008.07 1008.85 1009.64 1010.39 1010.92 1011.59 1011.99 1012.92 1013.98 1014.80 1015.33 1015.67 1016.13 1016.64 1017.09 1017.26 1017.26 1017.44 1017.46 1017.82 1017.78 1018.44 1018.54 1018.48 1018.25 1017.67 1017.77 1018.14 1017.80 1017.73 1017.66 1017.54 1017.56 1017.02 1016.78
1005.00 1005.58 1005.49 1005.39 1005.67 1005.52 1004.70 1003.86 1003.67 1004.04 1004.87 1004.98 1005.59 1006.26 1007.11 1007.87 1008.78 1009.75 1010.44 1011.02 1011.63 1012.67 1013.73 1014.61 1015.12 1015.59 1016.19 1016.61 1016.96 1016.95 1017.01 1017.18 1017.34 1017.56 1017.68 1018.18 1018.28 1018.38 1018.39 1017.81 1017.99 1017.95 1017.76 1017.80 1017.90 1018.13 1017.72 1017.57 1017.17
1006.54 1006.19 1005.76 1005.45 1005.47 1005.49 1004.37 1003.51 1002.81 1003.00 1003.87 1004.25 1004.65 1005.28 1005.98 1006.73 1007.75 1008.99 1009.97 1010.58 1011.24 1012.07 1013.20 1014.16 1014.79 1015.35 1015.92 1016.32 1016.52 1016.65 1016.76 1017.01 1017.16 1017.38 1017.73 1018.11 1018.22 1018.28 1018.36 1017.73 1018.03 1018.02 1017.86 1018.04 1018.18 1017.88 1017.74 1017.16 1017.28
1006.41 1006.14 1005.62 1005.46 1005.65 1005.27 1003.95 1002.98 1002.21 1002.01 1002.39 1002.83 1003.72 1004.29 1004.99 1005.71 1006.71 1008.18 1009.25 1009.91 1010.61 1011.58 1012.50 1013.55 1014.28 1015.04 1015.67 1015.89 1016.16 1016.16 1016.39 1016.50 1016.64 1017.10 1017.63 1018.02 1018.15 1018.18 1018.10 1018.01 1017.83 1017.97 1017.62 1018.27 1018.26 1018.28 1017.68 1017.50 1017.59
1006.09 1005.84 1005.65 1005.67 1005.37 1004.38 1003.95 1002.00 1001.26 1001.10 1001.47 1001.93 1002.46 1003.29 1003.94 1004.56 1005.51 1007.09 1008.29 1009.06 1009.94 1010.89 1011.90 1012.79 1013.71 1014.43 1015.17 1015.37 1015.88 1016.33 1016.46 1016.83 1016.93 1016.94 1017.38 1017.58 1017.90 1017.97 1018.03 1018.05 1018.06 1018.10 1018.08 1017.68 1018.42 1018.25 1018.22 1017.50 1017.58
1005.47 1005.53 1005.92 1005.74 1005.12 1003.76 1003.54 1001.72 1000.55 1000.49 1000.60 1001.05 1001.48 1002.14 1002.87 1003.69 1004.75 1005.82 1007.21 1008.22 1009.02 1010.00 1011.26 1012.15 1013.10 1013.83 1014.59 1015.06 1015.29 1015.64 1015.68 1015.97 1015.93 1016.33 1016.56 1016.78 1017.48 1017.66 1017.70 1017.87 1018.07 1018.19 1017.73 1017.95 1018.16 1018.20 1018.22 1018.25 1017.80
1005.61 1005.80 1005.80 1005.39 1004.63 1003.88 1002.34 1001.73 999.93 1000.14 999.87 1000.11 1000.46 1000.90 1001.79 1002.78 1003.74 1004.84 1005.94 1007.05 1008.11 1009.33 1010.37 1011.44 1012.53 1013.29 1013.78 1014.49 1014.75 1015.26 1015.37 1015.14 1015.97 1016.07 1016.13 1016.80 1016.85 1017.39 1017.43 1017.55 1017.79 1018.05 1018.00 1017.99 1018.18 1018.32 1018.40 1018.04 1017.86
1005.77 1005.69 1004.97 1004.72 1003.97 1002.79 1001.38 1001.51 999.19 999.06 999.79 999.87 999.97 1000.35 1000.89 1001.76 1002.93 1004.05 1005.24 1006.37 1007.42 1008.67 1009.77 1010.69 1011.78 1012.67 1013.33 1013.94 1014.47 1014.72 1014.82 1014.98 1015.75 1015.88 1016.21 1016.10 1016.30 1016.74 1017.03 1017.12 1017.48 1017.82 1017.65 1017.91 1018.09 1018.20 1018.31 1018.37 1018.37
1005.52 1004.75 1003.34 1002.66 1002.06 1001.17 1001.70 1001.26 999.82 999.28 999.34 999.35 999.44 999.72 1000.36 1001.14 1002.20 1003.34 1004.57 1005.64 1006.80 1007.74 1008.92 1009.91 1010.95 1011.85 1012.56 1013.18 1013.72 1014.20 1014.52 1014.95 1015.14 1015.59 1015.58 1015.81 1015.97 1015.84 1016.23 1016.83 1017.10 1017.28 1017.54 1017.59 1017.83 1018.03 1018.05 1018.22 1018.12
1004.18 1003.74 1002.49 1001.59 1000.86 1000.63 1001.63 1000.40 999.05 999.02 999.06 998.94 999.04 999.27 999.93 1000.67 1001.49 1002.59 1003.75 1005.03 1006.07 1007.00 1008.15 1009.10 1010.08 1010.97 1011.64 1012.32 1012.93 1013.57 1014.08 1014.29 1014.64 1015.43 1014.93 1015.66 1015.03 1015.40 1015.64 1016.35 1016.54 1016.99 1017.01 1017.37 1017.45 1017.67 1017.86 1017.82 1017.97
1003.43 1003.52 1002.65 1001.96 1001.28 1001.27 1000.22 999.92 999.24 998.63 998.63 998.66 998.77 999.26 999.75 1000.22 1000.94 1002.01 1003.11 1004.40 1005.45 1006.30 1007.16 1007.99 1008.96 1009.96 1010.66 1011.27 1012.16 1012.83 1013.44 1013.76 1013.85 1014.66 1015.10 1014.99 1014.88 1014.76 1015.43 1015.80 1016.26 1016.45 1016.77 1016.97 1017.13 1017.31 1017.41 1017.80 1017.86
1003.42 1003.16 1002.50 1002.09 1001.27 1000.41 999.44 999.61 998.79 998.74 998.74 998.89 999.05 999.21 999.60 1000.21 1000.82 1001.66 1002.50 1003.65 1004.68 1005.47 1006.47 1007.35 1008.05 1008.84 1009.56 1010.33 1011.23 1011.90 1012.58 1013.13 1013.41 1014.19 1014.63 1014.64 1014.78 1015.09 1015.22 1015.71 1015.93 1016.13 1016.38 1016.59 1016.95 1016.84 1017.10 1017.47 1017.74
1003.11 1002.76 1002.49 1001.76 1001.29 1000.27 999.41 998.44 999.00 999.10 998.94 998.94 999.17 999.75 999.65 1000.16 1000.83 1001.49 1002.25 1003.02 1003.91 1004.90 1005.64 1006.57 1007.35 1008.10 1008.80 1009.49 1010.16 1010.90 1011.63 1012.42 1012.97 1013.21 1013.86 1014.39 1014.67 1014.95 1015.23 1015.51 1015.59 1015.79 1016.01 1016.26 1016.51 1016.57 1016.56 1016.74 1017.04
1001.87 1001.48 1001.38 1001.14 1000.58 1000.56 1000.13 998.88 998.56 999.08 999.07 999.23 999.28 999.76 1000.08 1000.27 1000.64 1001.34 1002.04 1002.85 1003.50 1004.31 1004.93 1005.62 1006.52 1007.18 1007.98 1008.66 1009.49 1010.13 1010.84 1011.46 1012.08 1012.62 1013.10 1013.66 1014.09 1014.51 1014.86 1015.08 1015.25 1015.36 1015.53 1015.75 1016.00 1016.11 1015.88 1016.08 1016.23
Wind_Speed
10 7 4 5 6 1 7 9 4 6 4 4 5 1 2 8 5 4 12 14 22 18 18 15 13 12 11 10 10 10 9 9 9 9 10 10 10 9 9 8 6 5 3 3 5 5 6 8 7
3 2 5 3 5 5 7 4 7 7 7 6 5 4 2 7 8 10 15 20 22 19 17 15 11 12 11 8 7 8 8 9 9 9 9 9 9 9 9 7 5 3 2 4 5 6 6 6 7
4 4 5 2 3 7 9 5 7 8 6 1 3 4 3 5 5 13 17 23 21 18 16 15 15 13 10 7 6 7 8 8 9 8 6 9 8 8 7 6 4 3 4 5 5 6 5 5 5
4 5 4 4 8 6 6 5 7 5 3 1 2 8 8 7 9 8 22 22 19 19 16 16 14 12 8 7 5 6 7 9 9 8 7 7 7 7 6 5 5 6 6 5 6 6 4 3 2
4 3 2 4 5 4 2 1 6 3 3 4 2 8 7 7 9 19 22 18 19 18 17 13 15 15 10 9 7 5 7 8 8 7 8 6 7 6 6 6 6 7 5 7 6 5 3 2 3
5 3 5 4 4 2 1 2 7 5 3 4 2 8 8 10 15 20 19 18 18 18 18 9 11 12 11 8 8 7 6 7 8 8 7 7 6 6 7 7 7 7 6 6 5 3 2 3 3
6 2 3 3 3 3 1 2 5 2 2 3 4 4 8 13 16 19 18 18 16 16 15 9 8 10 9 8 8 8 7 7 7 8 8 6 6 5 6 6 8 7 6 4 2 2 2 3 2
3 3 4 2 1 3 2 1 2 2 4 6 2 5 11 15 18 19 18 17 15 16 14 9 11 9 7 10 8 8 8 7 8 7 7 7 7 6 6 6 5 6 5 2 1 2 4 2 0
1 2 7 3 2 5 3 3 1 1 4 3 4 3 10 21 20 19 17 15 10 10 14 14 11 10 8 8 9 8 9 9 9 9 9 9 8 9 11 9 5 2 2 2 3 4 5 4 6
5 3 6 5 3 5 4 5 4 6 4 5 6 8 17 21 20 21 19 18 18 15 14 11 13 12 10 6 8 8 8 9 7 6 9 5 5 3 5 6 1 3 4 5 6 7 6 8 2
3 6 7 4 5 3 4 4 4 5 4 1 6 13 18 18 19 20 20 20 18 16 13 14 10 10 13 9 6 6 5 6 6 7 7 5 4 6 6 5 6 7 8 6 9 8 7 1 3
4 3 6 7 5 4 7 5 6 6 3 3 7 16 19 19 18 19 19 18 17 16 16 15 13 12 9 6 6 5 5 5 6 7 7 6 5 5 3 3 3 4 4 3 4 2 5 5 3
3 8 9 9 7 7 6 8 7 6 5 4 14 17 17 16 16 17 18 18 16 16 15 14 13 11 8 8 5 4 4 6 6 6 7 6 5 4 4 3 4 3 3 2 2 3 2 3 4
10 11 10 5 5 3 8 8 5 2 7 11 15 17 15 15 17 16 17 18 17 15 15 15 14 12 11 8 7 4 3 4 5 6 8 6 5 4 4 5 5 4 3 2 2 3 3 2 3
9 10 3 5 5 5 10 9 5 5 9 12 15 15 15 14 16 17 18 17 16 15 15 15 14 13 12 10 8 6 4 6 6 5 6 7 7 6 4 3 4 3 2 4 3 3 2 4 2
9 9 4 5 8 2 10 4 4 4 10 12 14 14 14 15 16 16 18 17 17 15 15 14 12 14 13 11 9 7 9 5 4 3 7 8 7 4 5 5 4 2 1 1 1 2 3 3 4
8 9 5 1 3 9 7 14 5 3 9 12 14 15 15 15 15 16 18 18 17 15 15 15 15 13 13 10 9 8 8 6 6 7 6 9 7 6 5 4 4 4 1 1 4 2 4 4 5
5 8 8 10 3 11 13 12 8 7 10 11 13 15 16 16 18 18 17 18 17 16 15 15 13 14 12 8 8 8 7 7 7 7 7 8 7 6 5 4 3 5 3 2 2 4 4 5 5
8 12 13 12 9 11 13 15 11 4 12 13 14 16 17 17 17 18 17 17 18 17 17 16 15 14 11 10 10 9 9 8 7 7 7 8 7 7 5 5 5 4 4 2 2 3 1 4 5
10 12 13 7 4 13 13 15 15 8 11 13 15 16 16 17 18 18 18 18 18 18 17 17 16 15 13 10 9 8 8 8 8 8 8 8 8 8 7 5 5 2 3 3 2 3 4 2 4
12 12 12 11 13 10 10 18 5 7 11 10 13 15 17 18 19 20 20 19 18 19 18 17 17 16 15 13 9 7 6 4 7 7 8 10 10 9 8 6 6 4 5 4 4 3 3 4 1
13 5 5 8 9 10 7 13 13 2 4 7 10 15 17 18 18 19 21 20 20 19 18 18 17 16 15 15 12 13 10 10 10 10 8 9 11 11 10 8 7 6 5 2 4 4 3 3 3
10 3 7 10 11 10 15 9 4 4 7 6 4 9 16 18 19 19 21 21 21 18 17 17 17 16 16 16 13 12 12 10 5 6 8 10 9 11 11 9 9 7 8 6 3 3 3 2 6
2 10 12 9 10 12 6 6 6 7 4 6 7 3 11 18 19 19 19 18 18 18 17 17 18 17 17 17 17 15 14 11 8 9 9 10 9 10 12 12 9 8 9 5 6 4 4 5 3
10 13 9 9 10 5 6 8 12 12 7 11 11 5 12 16 18 18 19 18 18 20 19 17 19 18 18 18 17 17 16 14 13 10 9 9 8 9 12 13 10 9 9 7 7 6 4 5 6
18 16 10 5 5 2 7 6 5 5 12 10 7 5 13 18 18 19 20 19 20 21 20 19 19 19 19 19 18 16 16 11 11 11 8 7 9 9 11 12 12 12 9 9 8 7 6 6 6
10 11 15 16 12 10 10 2 15 5 2 8 4 6 13 19 19 20 20 19 19 20 22 22 20 20 20 20 17 17 15 15 12 11 12 9 8 8 11 11 12 12 11 10 8 8 7 7 7
14 8 9 12 14 13 3 4 7 4 8 9 5 5 12 16 17 18 17 19 18 19 19 20 21 20 19 19 17 16 16 16 14 13 10 13 10 10 10 10 12 12 11 10 10 9 9 8 6
9 12 10 10 9 12 10 2 8 6 8 10 4 2 7 13 15 14 15 16 17 17 18 19 19 19 18 18 17 16 16 17 15 14 14 13 13 12 11 11 11 12 12 10 10 9 9 9 10
11 12 12 9 7 8 9 10 5 2 6 8 7 3 3 8 13 14 14 14 16 17 18 19 18 19 18 17 16 17 15 15 16 15 15 14 14 14 14 13 13 13 13 12 11 12 11 11 11
Wind_Direction
199 218 268 239 229 183 88 80 57 93 99 58 102 352 28 345 354 46 129 129 143 145 143 150 144 133 126 126 123 123 128 134 140 145 143 145 152 156 156 152 156 159 127 78 79 100 113 105 106
144 228 228 269 243 119 88 75 65 55 78 105 119 138 128 84 63 121 135 144 154 144 146 136 122 126 126 130 138 136 142 149 148 148 153 155 159 166 169 163 170 172 131 99 90 101 100 104 109
243 251 271 320 308 63 90 77 92 107 118 225 101 352 40 63 65 148 131 145 155 146 135 144 139 137 130 132 150 154 153 150 140 138 149 158 166 174 172 170 165 150 131 114 106 100 92 89 103
227 189 219 231 97 88 56 104 131 134 122 73 107 99 104 30 146 144 144 158 149 132 151 140 152 145 155 140 166 174 165 145 143 150 155 157 152 157 158 151 145 141 134 131 104 96 91 56 47
231 233 181 132 106 102 96 66 179 173 75 131 271 109 84 72 118 141 150 155 145 153 146 163 163 150 167 168 182 183 172 156 147 164 163 159 151 143 138 133 144 125 114 121 117 94 58 56 31
215 264 184 137 107 148 204 273 200 216 102 120 170 114 83 116 142 148 155 155 149 159 133 166 161 152 170 177 178 183 169 159 153 168 158 169 148 139 127 124 123 128 130 96 78 68 29 24 41
338 307 70 128 114 193 346 348 189 213 150 141 121 106 110 146 147 153 161 153 157 143 148 162 175 164 176 180 183 160 174 164 164 165 164 152 148 129 139 145 139 134 120 104 81 353 357 21 70
331 287 142 153 52 75 103 274 308 238 93 101 185 158 158 151 158 157 165 154 164 161 147 175 168 174 182 168 162 158 169 167 166 165 153 154 147 142 128 150 127 112 120 141 237 315 321 325 260
305 238 82 69 357 33 177 249 150 32 155 205 134 17 112 147 160 160 168 151 159 162 163 185 185 151 184 180 148 167 168 155 159 166 157 184 173 174 169 86 95 129 178 231 272 291 300 321 210
325 7 24 333 323 316 315 268 179 215 181 177 148 106 132 154 164 169 170 170 171 167 166 193 177 166 176 163 155 167 161 166 175 178 156 225 145 127 23 105 116 242 249 257 257 262 272 249 299
57 16 347 339 300 304 292 259 223 251 213 310 183 150 153 162 172 175 178 177 175 169 162 195 175 177 178 170 176 165 178 147 163 173 168 139 193 172 203 153 187 199 192 243 201 199 230 341 291
296 7 348 314 315 264 278 301 270 259 360 43 123 152 160 171 177 178 182 179 175 172 169 185 179 179 183 157 197 176 179 177 174 168 174 155 213 174 182 194 170 219 202 229 228 336 329 295 288
257 339 320 316 288 258 268 255 269 263 229 146 135 155 166 173 176 181 181 179 183 177 181 186 178 176 192 181 190 196 188 209 162 167 170 182 190 183 201 170 208 256 193 232 250 249 276 267 234
335 317 301 310 342 290 288 292 258 126 153 157 159 165 167 171 174 175 184 180 184 186 183 188 183 179 187 194 193 191 211 198 175 183 157 191 201 179 178 192 209 215 242 262 291 329 321 311 300
299 296 288 31 3 360 322 248 225 90 168 170 174 173 167 172 172 179 183 181 190 187 183 189 189 184 185 189 188 197 218 183 180 187 160 197 216 178 288 199 210 194 205 263 231 259 226 291 303
278 266 280 69 345 39 322 311 76 170 187 180 178 178 178 176 179 180 183 190 182 186 183 193 195 188 187 184 187 183 210 196 201 192 184 192 193 210 213 197 175 94 198 206 65 360 326 357 334
202 295 329 331 30 338 331 306 67 177 192 187 183 181 187 180 183 184 187 194 182 188 181 194 196 195 191 185 192 210 191 213 201 190 207 185 195 192 247 201 143 212 151 45 326 25 333 335 349
337 312 300 302 2 321 306 299 311 197 210 207 192 188 189 189 189 184 192 189 192 183 187 193 197 197 197 189 202 207 195 207 206 211 206 184 209 197 223 175 183 230 198 208 342 328 359 321 346
293 297 292 293 328 316 317 304 302 202 203 210 207 197 192 194 182 179 189 188 189 186 188 193 196 193 190 196 199 203 205 207 208 213 201 204 228 205 207 238 199 236 241 355 254 265 287 313 359
278 283 281 315 176 318 301 297 291 249 224 215 205 205 199 192 176 181 187 189 191 188 191 193 200 192 199 196 205 211 204 204 209 203 196 218 217 224 214 240 226 230 229 213 284 300 310 278 31
249 271 286 296 317 273 276 285 205 239 222 232 214 208 204 196 187 181 190 189 192 187 193 193 198 193 197 205 196 188 208 213 202 200 208 204 220 225 227 215 259 214 267 200 208 220 318 349 314
261 269 275 284 296 301 340 303 295 39 235 214 223 208 205 202 194 184 188 191 193 191 189 191 193 193 193 196 192 199 201 197 202 205 205 205 208 223 231 221 222 230 245 277 208 208 308 292 310
268 196 294 290 279 290 274 264 283 144 132 93 125 212 198 199 195 190 193 190 191 187 188 190 190 195 195 191 209 197 218 206 206 234 204 215 198 221 224 220 221 227 232 197 270 220 255 200 303
191 255 248 251 259 266 272 289 269 140 359 314 336 203 195 187 192 191 194 185 187 184 190 187 187 194 196 195 201 204 204 220 195 203 208 220 211 206 217 220 215 220 233 214 224 217 223 283 300
228 250 256 224 208 249 69 284 259 310 307 322 311 276 182 180 182 183 186 185 187 186 188 188 188 194 196 197 200 203 207 207 210 204 203 206 225 214 200 211 211 209 217 227 229 213 257 241 262
208 242 263 276 286 334 149 260 240 321 316 318 305 206 171 177 178 182 184 186 189 189 189 190 189 195 195 197 201 201 206 207 214 204 226 184 212 199 197 199 212 217 214 221 222 229 234 231 239
197 235 255 280 259 261 261 247 261 247 313 19 48 169 177 176 177 182 182 185 189 191 193 193 191 195 196 197 198 200 202 213 205 196 208 218 219 193 193 203 209 208 214 222 232 234 229 246 233
260 343 223 223 264 268 242 252 274 342 350 356 41 155 166 177 178 181 184 185 189 196 194 198 196 196 196 197 197 198 200 205 205 190 208 210 211 227 187 207 208 210 214 223 225 236 217 234 229
176 225 229 297 296 297 283 281 63 327 343 348 53 124 164 179 185 188 191 191 189 192 195 200 200 199 199 200 198 200 198 199 206 203 198 202 216 202 214 208 210 216 219 220 221 237 251 238 241
290 270 241 243 220 236 290 292 113 44 350 339 350 93 140 194 190 194 196 195 193 192 196 197 201 199 200 198 201 201 200 200 198 208 207 205 206 211 211 214 218 221 224 226 223 228 238 232 241